Location: Iesi
(43.5167°N, 13.2333°E)
Time: 18:08:20
(UTC+00:00)

SL-4 R/B - Pass Details

Date: 08 August 2020
Orbit: 428 x 665 km, 51.6° (Epoch: 23 September)

Event Time Altitude Azimuth Distance (km) Brightness Sun altitude
Rises 19:02:47 0° 211° (SSW) 2,733 5.6 -7.7°
Reaches altitude 10° 19:05:15 10° 202° (SSW) 1,796 4.6 -8.1°
Maximum altitude 19:08:53 32° 138° (SE) 897 2.6 -8.7°
Drops below altitude 10° 19:12:18 10° 74° (ENE) 1,678 4.1 -9.2°
Sets 19:14:32 0° 64° (ENE) 2,523 5.1 -9.6°
